User: anonymous   Login
Location: Astronight Observatory
(42.6003°N, 71.2981°W)
Time: 13:13:07
(UTC-04:00)
Language:

DELTA 2 R/B (1) - Orbit

View from above orbital plane
View from above orbital plane
View from above satellite
View from above satellite

Ground track
Ground track

The orbit data is extracted from the following two-line orbital elements,

1 27665U 03005C   17174.90957212 +.00000015 +00000-0 +39584-4 0  9998
2 27665 039.5766 076.0345 0009306 304.8097 106.9220 14.28446343751808
Epoch (UTC): 23 June 2017 21:49:47
Eccentricity: 0.0009306
inclination: 39.5766°
perigee height: 790 km
apogee height: 803 km
right ascension of ascending node: 76.0345°
argument of perigee: 304.8097°
revolutions per day: 14.28446343
mean anomaly at epoch: 106.9220°
orbit number at epoch: 75180

The dashed part of the orbit path shows where the satellite is in the earth's shadow,  

DLR